Back to catalog

STARLINK-35269

AliveCommunicationsSSO
NORAD 65593·PAYLOAD·🇺🇸 United States

Launched Sep 13, 2025 from Cape Canaveral Space Force Station

Loading…

Next Passes (next 24 hours)

TLE

FreshSource: CelesTrak SupGP

Epoch: Sep 14, 2026, 20:49 UTC

1 65593C 25207B   26257.86784722  .02280200  00000+0  12074+0 0  2573
2 65593  97.2841 320.5638 0001571  82.5809 162.2081 15.14356590    14

Track STARLINK-35269 in real time with AllMySat

Download on the App Store